sat.trackr.live / text

‹ back to catalog

STARLINK-4251

NORAD 53083 · 2022-077AS

PAYLOAD ACTIVE UNKNOWN

§ Identity

Operator
Country
US
Launch date
2022-07-11
Launch site
AFWTR
Launch vehicle
Mass (kg)
RCS (m²)

Purposes: comms

External: N2YO · Heavens-Above · Gunter

§ Orbital elements

Epoch: 2026-09-19T19:03:19.497024Z

Period
93.91 min
Inclination
97.2851°
Eccentricity
0.0001357
Mean motion
15.33434731 rev/d
Perigee alt
464.6 km
Apogee alt
466.5 km
Semi-major
6,843.7 km
B*
2.1494e-5
RAAN
78.4531°
Arg perigee
90.0868°
Mean anomaly
270.0531°
Rev number
23,024

§ Raw data

STARLINK-42511 53083U 22077AS  26262.79397566  .00000619  00000+0  21494-4 0  99962 53083  97.2851  78.4531 0001357  90.0868 270.0531 15.33434731230241

JSON: /api/v1/satellites/53083 · /tle

For live sub-satellite position, see the globe view (requires WebGL).

§ Visibility from observer

Set your observer location to see the next 7 days of passes ≥ 10°. The values pass through the URL so the page stays shareable.

No JS? Fill the form by hand. The geolocation button needs JavaScript.